Regional Weather Roundup
Issued by NWS

Home | Current Version | Previous Version | Text Only | Print | Product List | Glossary Off
Versions: 1 2 3 4 5 6 7 8 9 10 11 12 13 14 15 16 17 18 19 20 21 22 23 24 25 26 27 28 29 30 31 32 33 34 35 36 37 38 39 40 41 42 43 44 45 46 47 48 49 50

000
ASUS43 KDTX 010510
RWRMI
MICHIGAN HOURLY REGIONAL WEATHER ROUNDUP
NATIONAL WEATHER SERVICE DETROIT/PONTIAC MI
100 AM EDT MON SEP 01 2014

NOTE: "FAIR" INDICATES FEW OR NO CLOUDS BELOW 12,000 FEET WITH NO
SIGNIFICANT WEATHER AND/OR OBSTRUCTION TO VISIBILITY.

MIZ047>049-052>055-059>063-066>070-074>076-081>083-010600-
SOUTHEAST LOWER MICHIGAN

CITY           SKY/WX    TMP DP  RH WIND       PRES   REMARKS
ADRIAN         CLEAR     70  67  90 CALM      29.95R
ALMA           FOG       60  59  97 CALM      29.92R VSB 1/4
BAD AXE        MOCLDY    67  67 100 CALM      29.92S
DETROIT CITY   CLEAR     76  69  79 S7        29.92S
DETROIT        PTCLDY    73  69  87 S8        29.93S
FLINT          PTCLDY    71  65  81 S3        29.92R
GROSSE ILE     CLEAR     75  72  88 S9        29.92R
HILLSDALE      CLEAR     70  70 100 S3        29.96R FOG
HOWELL         CLEAR     68  66  96 CALM      29.93R

CITY           SKY/WX    TMP DP  RH WIND       PRES   REMARKS
JACKSON        PTCLDY    67  65  93 CALM      29.94R
LAMBERTVILLE   CLEAR     73  68  83 S5        29.95R
LANSING        CLEAR     67  65  93 CALM      29.93R
LAPEER         NOT AVBL
MASON          CLEAR     67  65  93 CALM      29.94R
MONROE         CLEAR     73  70  88 S6        29.92R
MT. CLEMENS    CLEAR     71  68  89 SE2       29.91S
PONTIAC        CLEAR     72  67  84 CALM      29.93R
PORT HOPE        N/A     68  65  90 S3        29.90F
PORT HURON     PTCLDY    66  66 100 CALM      29.92F FOG
TRI CITIES     CLEAR     69  65  86 S3        29.90S
YPSILANTI      PTCLDY    74  68  81 S8        29.94R
$$
MIZ043>046-050>051-056>058-064>065-071>073-077>080-010600-
SOUTHWEST LOWER MICHIGAN

CITY           SKY/WX    TMP DP  RH WIND       PRES   REMARKS
BATTLE CREEK   CLEAR     69  66  90 S5        29.93R
BENTON HARBOR  CLEAR     69  66  90 SE3       29.90S
BIG RAPIDS     CLEAR     61  61 100 CALM      29.91R FOG
COLDWATER        N/A     72  71  95 CALM      29.95R
HOLLAND        PTCLDY    70  67  90 SE7       29.90S
GRAND RAPIDS   CLEAR     68  68 100 S6        29.91R
KALAMAZOO      CLEAR     69  66  90 S5        29.92S
MARSHALL       CLEAR     65  65  99 SE3       29.94R
MUSKEGON       CLEAR     71  65  81 SE6       29.89R
$$
MIZ016>042-010600-
NORTHERN LOWER MICHIGAN

CITY           SKY/WX    TMP DP  RH WIND       PRES   REMARKS
ALPENA         PTCLDY    59  58  96 SE5       29.91R
BEAVER ISLAND  PTCLDY    62  62  97 SE5       29.87R
BELLAIRE       CLEAR     59  58  96 CALM      29.88R
CADILLAC       CLEAR     59  58  97 CALM      29.91R
CHARLEVOIX     CLEAR     64  63  99 SE3       29.90R
FRANKFORT      MOCLDY    71  64  78 S3        29.85S
GAYLORD        CLEAR     61  60  97 S8        29.90R
GRAYLING       CLEAR     62  62 100 SE3       29.91R
HARBOR SPRINGS CLEAR     63  61  93 CALM      29.88R
HOUGHTON LAKE  CLEAR     64  62  93 SE7       29.92R
MANISTEE       MOCLDY    66  63  88 SE3       29.87S
OSCODA         CLEAR     65  64  98 SE3       29.90S
PELLSTON       CLEAR     57  56  96 CALM      29.89R
TRAVERSE CITY  CLEAR     66  62  87 CALM      29.86R
$$
MIZ007>008-015-010600-
EASTERN UPPER MICHIGAN

CITY           SKY/WX    TMP DP  RH WIND       PRES   REMARKS
KINROSS        CLEAR     57  57 100 SE9       29.88R
MACKINAC ISLAN CLEAR     62  61  98 SE7       29.88R
NEWBERRY       PTCLDY    59  59  98 S6        29.86R
S. S. MARIE    CLEAR     59  57  93 CALM      29.87R
$$
MIZ004>006-011>014-085-010600-
CENTRAL UPPER MICHIGAN

CITY           SKY/WX    TMP DP  RH WIND       PRES   REMARKS
MANISTIQUE     PTCLDY    62  62  99 SE6       29.84S
ESCANABA       PTCLDY    64  61  88 S5        29.83R
MENOMINEE      PTCLDY    66  63  88 S5        29.81S
SAWYER-GWINN   CLOUDY    62  61  97 S14       29.80F FOG
$$
MIZ001>003-009>011-084-010600-
WESTERN UPPER MICHIGAN

CITY           SKY/WX    TMP DP  RH WIND       PRES   REMARKS
IRON MOUNTAIN  CLOUDY    64  63  96 SE8       29.80F FOG
HOUGHTON       CLOUDY    64  60  87 SE9       29.71F
COPPER HARBOR    N/A     64  59  83 SW16G29   29.69F
$$

ABBREVIATIONS USED IN REMARKS
   TC - TEMPERATURE IN CELSIUS
  WCI - WIND CHILL INDEX
   HX - HEAT INDEX
  VSB - VISIBILITY



USA.gov is the U.S. government's official web portal to all federal, state and local government web resources and services.